Location: Blue Mountain Vista Observatory
(40.6992°N, 75.9422°W)
Time: 16:46:00
(UTC-04:00)

Daily predictions for brighter satellites

Satellite Brightness Start Highest point End
(mag) Time Altitude Azimuth Time Altitude Azimuth Time Altitude Azimuth
SL-27 R/B 3.4 20:46:00 10° NNW 20:49:33 51° WSW 20:53:01 10° S
Meteor 2-10 Rocket 4.2 20:44:49 10° NNW 20:50:33 66° W 20:56:05 10° S
Cosmos 1782 2.8 20:50:45 10° N 20:54:50 88° E 20:58:52 10° S
Cosmos 2341 Rocket 4.4 20:51:04 10° SSE 20:56:55 42° E 21:02:45 10° NNE
Cosmos 1833 Rocket 4.3 20:54:30 10° N 20:58:40 21° NE 21:02:49 10° E
Envisat 3.6 20:55:49 10° SE 21:00:30 40° ENE 21:05:14 10° N
Cosmos 1844 Rocket 3.3 20:56:18 10° SW 21:01:53 63° WNW 21:07:30 10° NNE
Meteor 2-6 Rocket 4.4 20:57:09 10° N 21:03:06 85° W 21:08:53 10° S
Cosmos 1825 2.6 20:59:52 10° SSE 21:03:29 44° E 21:07:08 10° NNE
FENGYUN 3A 4.3 20:58:20 10° S 21:03:38 59° W 21:08:57 10° NNW
deb Chang Zheng 4 4.2 21:00:36 10° NNE 21:04:41 36° E 21:08:47 10° SSE
Cosmos 2278 Rocket 2.2 21:01:01 10° SSW 21:06:38 71° ESE 21:12:19 10° NNE
Atlas Centaur 2 3.4 21:06:12 10° SW 21:07:15 11° SSW 21:08:16 10° S
ERS-1 Rocket 3.0 21:04:32 10° SSE 21:09:32 71° ENE 21:14:34 10° N
Cosmos 1420 Rocket 4.2 21:07:39 10° S 21:12:42 51° ESE 21:17:44 10° NNE
Cosmos 1844 4.2 21:07:43 10° SSW 21:13:27 69° WNW 21:19:16 10° NNE
Timation 2 Rocket 4.2 21:07:53 10° NNW 21:13:46 53° ENE 21:19:05 13° SE
H-2A R/B 2.4 21:09:43 10° SE 21:13:48 45° ENE 21:17:49 10° N
ISS -1.8 21:11:13 10° WSW 21:14:19 39° NNW 21:17:24 10° NE
Cosmos 1140 Rocket 3.7 21:10:54 10° N 21:15:59 57° ENE 21:20:40 12° SE
APEX 3.7 21:13:57 10° S 21:17:44 49° ESE 21:22:38 10° NE
Okean 3 3.6 21:13:53 10° N 21:18:05 57° E 21:22:11 10° SSE
Cosmos 407 Rocket 4.4 21:13:13 10° NNW 21:18:20 51° WSW 21:23:28 10° S
Cosmos 2154 Rocket 4.0 21:12:29 10° S 21:18:42 81° E 21:24:54 10° N
Cosmos 1939 Rocket 2.8 21:15:10 10° SSE 21:19:01 64° ENE 21:22:56 10° N
Cosmos 489 Rocket 4.5 21:15:51 10° NNW 21:22:03 70° ENE 21:27:54 12° SSE
Cosmos 1238 Rocket 2.6 21:19:08 10° N 21:22:35 68° E 21:26:43 10° SSE
COSMOS 2487 2.5 21:18:59 10° NNW 21:22:38 85° WSW 21:25:58 12° SSE
Abrixas 3.0 21:20:12 10° SSW 21:23:01 36° SE 21:25:52 10° ENE
Cosmos 2082 Rocket 2.9 21:21:32 10° N 21:26:55 41° ENE 21:30:58 17° ESE
SPOT 5 3.4 21:23:31 13° SE 21:28:07 52° ENE 21:33:19 10° N
Cosmos 1452 Rocket 4.4 21:28:52 10° SW 21:34:00 54° WNW 21:39:12 10° N
Lacrosse 5 3.0 21:34:06 10° SSE 21:37:52 21° ESE 21:41:38 10° ENE
Cosmos 1184 Rocket 3.1 21:35:06 10° SSW 21:38:25 67° W 21:41:46 10° N
Intercosmos 25 3.1 21:38:00 16° SSE 21:40:32 50° E 21:43:36 10° NNE
Cosmos 2366 rocket 4.5 21:37:33 15° SSE 21:42:24 41° E 21:48:17 10° NNE
H-2A R/B 3.7 21:40:11 14° E 21:42:44 20° ENE 21:46:24 10° NNE
Cosmos 2297 3.6 21:39:39 10° SSW 21:45:20 74° ESE 21:51:04 10° NNE
MetOp-B 4.2 21:43:39 18° SSE 21:47:33 64° ENE 21:52:51 10° N
Meteor 1-14 Rocket 4.2 21:44:00 10° S 21:49:34 60° E 21:55:03 10° NNE
Meteor 2-13 Rocket 4.4 21:45:46 10° S 21:51:55 87° E 21:58:07 10° N
Okean 2 Rocket 3.2 21:48:38 10° SSW 21:53:03 75° W 21:57:28 10° N
BREEZE-M DEB (TANK) 4.2 21:55:23 10° NW 21:56:42 15° N 21:58:20 10° NE
Cosmos 1782 Rocket 4.4 21:53:33 10° SSW 21:57:55 53° W 22:02:19 10° N
SPOT 1/Viking Rocket 3.8 21:55:17 25° SE 21:58:10 55° ENE 22:03:16 10° N
NOSS 8 (E) 4.3 21:59:03 10° SSW 22:02:29 71° ESE 22:06:08 10° NE
Cosmos 1242 Rocket 3.1 21:58:53 10° NNW 22:02:30 56° W 22:04:46 21° SSW
USA 229 DEB 3.8 21:55:30 10° NNW 22:02:37 75° NE 22:07:00 26° SE
USA 229 3.8 21:55:36 10° NNW 22:02:44 74° NE 22:07:06 26° SE
Cosmos 1850 Rocket 4.3 22:00:38 10° NNW 22:05:56 69° WSW 22:09:25 22° S
ARGOS 3.2 22:09:06 30° SE 22:11:44 65° ENE 22:17:02 10° N
YAOGAN 6 2.5 22:10:46 39° S 22:11:58 76° W 22:15:30 10° NNW
Cosmos 1975 Rocket 4.2 22:08:34 10° NNW 22:12:38 40° W 22:16:09 13° SSW
Cosmos 2369 Rocket 4.0 22:14:07 15° E 22:14:07 15° E 22:16:06 10° ENE
GPS 2-05 Rocket1 4.0 22:10:45 10° WSW 22:13:49 30° SSW 22:13:49 30° SSW
Cosmos 2218 Rocket 4.0 22:08:10 12° S 22:14:06 85° E 22:20:33 10° N
Lacrosse 5 rocket 1.2 22:10:20 10° SSW 22:14:11 52° SE 22:17:53 10° NE
OAO 3 Rocket 3.6 22:09:53 10° WSW 22:14:33 42° S 22:15:30 38° SE
PSLV R/B 3.9 22:16:18 38° SW 22:16:56 46° W 22:19:48 10° NNW
SL-08 RB Rocket 3.9 22:15:38 38° SE 22:17:11 59° ENE 22:21:46 10° N
CZ-4 R/B 3.9 22:14:12 10° NNE 22:18:46 54° E 22:20:06 40° SSE
Meteor 2-8 Rocket 4.4 22:13:34 10° N 22:19:44 70° E 22:22:43 32° SSE
Cosmos 1959 Rocket 4.5 22:16:51 13° S 22:22:22 83° W 22:28:31 10° N
CZ-4 SHROUD 4.2 22:23:31 35° SW 22:24:11 40° W 22:27:08 10° NNW
Cosmos 1536 Rocket 3.5 22:21:12 10° N 22:25:42 84° E 22:27:03 45° SSE
Gbstr 26 Del rocket 3.8 22:20:46 10° NW 22:25:48 49° NNE 22:27:30 32° E
AVUM R/B 3.2 22:22:22 10° NNW 22:25:53 85° WSW 22:26:05 78° S
Cosmos 1727 Rocket 3.9 22:21:17 10° N 22:27:29 79° E 22:30:27 33° SSE
Cosmos 1331 Rocket 3.9 22:27:09 33° S 22:29:26 68° ESE 22:34:34 10° NNE
Landsat 7 4.0 22:28:19 44° ESE 22:29:27 55° ENE 22:34:07 10° N
IGS 5A 4.3 22:32:36 34° ENE 22:32:45 34° ENE 22:36:32 10° N
DELTA 2 DEB (DPAF) 4.2 22:34:27 51° ESE 22:35:10 59° ENE 22:39:35 10° N
CZ-4C R/B 3.5 22:36:09 56° E 22:36:24 57° ENE 22:40:30 10° N
Cosmos 1110 Rocket 3.9 22:35:43 23° SSW 22:39:02 87° WNW 22:44:16 10° NNE
Meteor 1-20 Rocket 4.1 22:39:25 34° S 22:41:59 87° E 22:47:32 10° N
Cosmos 1400 Rocket 4.5 22:44:15 23° ENE 22:44:15 23° ENE 22:46:30 10° NNE
Cosmos 1833 Rocket 2.9 22:37:30 10° NNW 22:43:03 62° WSW 22:45:06 38° S
Terra 2.0 22:44:32 51° ESE 22:45:09 55° ENE 22:49:49 10° N
USA 245 4.3 22:46:35 34° SW 22:47:22 38° W 22:51:24 10° NNW
Cosmos 1339 Rocket 4.4 22:41:18 10° N 22:47:31 87° W 22:50:00 40° S
NOSS 3-1 (C) 4.2 22:41:57 10° NNW 22:49:27 63° NE 22:53:00 35° ESE
ISS -0.2 22:49:36 10° NW 22:51:25 14° N 22:53:14 10° NNE
Cosmos 1025 Rocket 4.2 22:48:31 10° NNE 22:52:00 30° ENE 22:52:00 30° ENE
DMSP B5D2-2 4.0 22:47:28 10° NNE 22:52:39 61° E 22:53:13 57° SE
Cosmos 1821 Rocket 4.2 22:57:21 45° ESE 22:58:16 49° E 23:04:12 10° NNE
USA 234 3.5 22:52:22 10° ENE 22:58:06 42° ESE 22:58:06 42° ESE
Abrixas 4.4 22:56:13 10° W 22:58:22 30° NW 22:58:22 30° NW
Cosmos 1809 Rocket 4.5 23:03:31 53° SE 23:04:35 62° E 23:10:42 10° NNE
Cosmos 1300 Rocket 3.7 23:04:46 62° WSW 23:05:15 68° W 23:09:42 10° N
Cosmos 1934 Rocket 4.2 23:05:08 45° ESE 23:05:31 45° E 23:11:15 10° NNE
Spot 4 3.8 23:06:34 68° E 23:06:46 69° ENE 23:11:36 10° N
Cosmos 1486 Rocket 3.9 23:03:21 10° NNW 23:08:42 85° WSW 23:09:19 70° S
Cosmos 1354 Rocket 4.3 23:04:58 10° N 23:10:08 52° ENE 23:10:29 51° E
Okean 1 3.9 23:06:45 10° NNW 23:10:39 51° W 23:10:39 51° W
Cosmos 2082 Rocket 3.7 23:06:01 10° NW 23:10:47 28° WSW 23:12:49 23° SW
Cosmos 2285 Rocket 4.1 23:12:35 54° ESE 23:13:00 55° ESE 23:19:14 10° NNE
Okean 1 Rocket 3.3 23:13:53 62° WSW 23:14:09 63° W 23:18:36 10° N
Cosmos 1812 4.0 23:11:42 10° NNW 23:15:11 35° W 23:15:11 35° W
Cosmos 2123 Rocket 4.3 23:11:17 10° N 23:17:18 47° ENE 23:17:57 46° E
Lacrosse 5 2.2 23:15:21 10° SW 23:20:24 64° NW 23:25:29 10° NE
Genesis I 4.0 23:21:07 50° NW 23:21:07 50° NW 23:24:56 10° NNE
H-2A R/B 2.4 23:20:50 50° SW 23:21:42 57° W 23:26:54 10° NNW
Meteor 2-4 Rocket 3.8 23:20:47 10° N 23:26:13 61° ENE 23:26:19 61° E
Okean 1-7 Rocket 4.5 23:30:53 10° NNW 23:34:56 42° W 23:34:56 42° W
SL-8 R/B 4.4 23:34:38 10° NW 23:39:20 49° NNE 23:39:35 49° NNE
Meteor 2-15 Rocket 4.4 23:33:40 10° N 23:39:47 67° E 23:40:05 65° E
Meteor 2-14 Rocket 4.3 23:42:33 77° S 23:43:03 88° E 23:49:14 10° N
Cosmos 1633 4.4 23:44:51 30° N 23:44:51 30° N 23:46:52 10° N
ASTEX 1 4.0 23:39:15 10° N 23:44:02 49° W 23:44:25 48° W
Meteor 2-15 4.2 23:39:41 10° N 23:45:50 87° E 23:46:10 81° SSE
Iridium 4 Rocket 3.7 23:43:07 10° N 23:49:03 77° W 23:49:23 74° SW
Cosmos 1315 Rocket 4.4 23:51:14 32° N 23:51:14 32° N 23:53:26 10° N
Lacrosse 5 rocket 3.6 23:50:37 10° W 23:53:37 21° NNW 23:56:32 10° NNE
